Location: ?????
(31.8092°N, 35.2590°E)
Time: 02:49:07
(UTC+00:00)

Cosmos 2360 Rocket - Pass Details

Date: 25 October 2021
Orbit: 832 x 846 km, 71.0° (Epoch: 07 December)

Event Time Altitude Azimuth Distance (km) Brightness Sun altitude
Exits shadow 01:28:06 - 355° (N) 3,042 5.1 -30.7°
Reaches altitude 10° 01:29:49 10° 2° (N) 2,471 4.7 -30.3°
Maximum altitude 01:34:46 30° 63° (ENE) 1,464 3.9 -29.3°
Drops below altitude 10° 01:39:41 10° 124° (SE) 2,459 5.2 -28.2°
Sets 01:42:24 0° 135° (SE) 3,389 5.9 -27.7°
